Voltar ao catálogo

CZ-4 DEB

AtivoSSO
NORAD 26756·DEBRIS·🇨🇳 China

Lançado Oct 14, 1999 de Taiyuan Satellite Launch Center

Loading…

Próximas Passagens (próximas 24 horas)

TLE

AtualizadoSource: Space-Track

Época: Sep 13, 2026, 02:13 UTC

1 26756U 99057MD  26256.09260448  .00000211  00000-0  77620-4 0  9990
2 26756  98.6879 305.0266 0081536 175.0999 185.1006 14.40917287336624

Acompanhe CZ-4 DEB em tempo real com AllMySat

Download on the App Store